#timestamp,LO_Frequency,Hit,StdDev 
1503018015.0,286047000.3,N,0.9
1503018015.9,286047000.3,N,0.9
1503018035.7,286046999.9,N,0.8
1503018055.6,286047001.1,N,0.8
1503018075.4,286047001.2,N,0.8
1503018095.2,286047000.7,N,0.8
1503018115.1,286047000.6,N,0.8
1503018116.0,286047000.6,N,0.8
1503018135.8,286046999.0,N,0.8
1503018155.7,286046999.5,N,0.8
1503018175.5,286046998.4,N,0.9
1503018195.3,286046999.4,N,0.9
1503018215.2,286046998.4,N,0.9
1503018235.9,286046998.3,N,1.0
1503018255.7,286046999.1,N,1.0
1503018275.6,286046998.8,N,1.0
1503018295.4,286046998.6,N,1.0
1503018315.2,286047001.2,N,1.0
1503018335.1,286046999.9,N,1.0
1503018336.0,286046999.9,N,1.0
1503018355.8,286047000.6,N,1.0
1503018375.6,286047000.4,N,0.9
1503018395.5,286047001.1,N,1.0
1503018415.3,286047000.6,N,0.9
1503018435.1,286047000.9,N,1.0
1503018455.9,286047000.0,N,0.9
1503018475.7,286046998.2,N,0.9
1503018495.5,286046998.3,N,1.0
1503018515.4,286046998.7,N,1.0
1503018535.2,286046998.3,N,1.0
1503018555.0,286046998.6,N,1.0
1503018555.9,286046998.6,N,1.0
1503018575.8,286047000.7,N,1.1
1503018595.6,286047001.1,N,1.1
1503018615.4,286047001.1,N,1.1
1503018635.3,286047001.2,N,1.1
1503018655.1,286047001.0,N,1.1
1503018675.8,286046998.9,N,1.1
1503018695.7,286046998.7,N,1.1
1503018715.5,286046998.6,N,1.1
1503018735.3,286047000.9,N,1.1
1503018755.2,286047000.6,N,1.1
1503018775.0,286047000.3,N,1.1
1503018775.9,286047000.3,N,1.1
1503018795.8,286047000.0,N,1.1
1503018815.6,286047000.7,N,1.0
1503018835.4,286046998.5,N,1.1
1503018855.3,286047000.3,N,1.0
1503018875.1,286047000.1,N,1.0
1503018876.0,286047000.1,N,1.0
1503018895.8,286047000.5,N,1.0
1503018915.7,286047001.0,N,1.0
1503018935.5,286046999.7,N,1.0
1503018955.3,286047000.2,N,1.0
1503018975.2,286047002.6,N,1.1
1503018995.9,286047001.6,N,1.2
1503019015.7,286047002.4,N,1.2
1503019035.6,286047002.4,N,1.2
1503019055.4,286047000.1,N,1.2
1503019075.2,286046999.9,N,1.1
1503019095.1,286046999.9,N,1.1
1503019096.0,286046999.9,N,1.0
1503019115.8,286047000.5,N,1.0
1503019135.6,286047002.8,N,1.1
1503019155.5,286047000.4,N,1.1
1503019175.3,286047000.4,N,1.1
1503019195.1,286047000.9,N,1.1
1503019215.9,286047000.8,N,1.0
1503019235.7,286047000.8,N,1.0
1503019255.6,286047000.6,N,0.9
1503019275.4,286046998.2,N,1.0
1503019295.2,286046998.7,N,1.1
1503019315.1,286046998.6,N,1.1
1503019316.0,286046998.6,N,1.2
1503019335.8,286047001.0,N,1.2
1503019355.6,286047002.5,N,1.2
1503019375.5,286047002.4,N,1.2
1503019395.3,286047002.5,N,1.3
1503019415.1,286047004.4,Y,0.0
1503019435.9,286047002.6,P,1.0
1503019455.7,286047000.1,N,1.1
1503019475.5,286047002.8,N,1.2
1503019495.4,286047002.8,N,1.2
1503019515.2,286047002.3,N,1.1
1503019535.0,286047002.7,N,1.0
1503019535.9,286047002.7,N,1.0
1503019555.8,286047002.8,N,1.0
1503019575.6,286046999.8,N,1.2
1503019595.4,286047002.5,N,1.1
1503019615.3,286047002.7,N,1.1
1503019635.1,286046999.8,N,1.2
1503019655.8,286047002.4,N,1.2
1503019675.7,286047000.6,N,1.2
1503019695.5,286047001.0,N,1.2
1503019715.3,286046998.2,N,1.4
1503019735.2,286046999.0,N,1.5
1503019755.0,286046999.1,N,1.5
1503019755.9,286046999.1,N,1.6
1503019775.8,286046997.0,N,1.8
1503019795.6,286046996.8,N,1.9
1503019815.4,286046996.7,N,2.1
1503019835.3,286046996.9,N,2.2
1503019855.1,286046999.2,N,2.1
1503019856.0,286046999.2,N,2.1
1503019875.8,286046999.5,N,2.1
1503019895.7,286046996.8,N,2.1
1503019915.5,286046999.5,N,2.1
1503019935.3,286046999.5,N,2.1
1503019955.2,286046997.2,N,2.1
1503019975.9,286046997.2,N,2.1
1503019995.7,286046997.3,N,2.2
1503020015.6,286046997.9,N,2.1
1503020035.4,286046998.0,N,2.1
1503020055.2,286046997.7,N,2.0
1503020075.1,286046997.5,N,1.9
1503020076.0,286046997.5,N,1.8
1503020095.8,286046995.3,N,1.8
1503020115.6,286046996.0,N,1.9
1503020135.5,286047011.9,Y,0.0
1503020155.3,286046997.6,P,0.5
1503020175.1,286046995.0,P,1.5
1503020195.9,286046996.2,N,1.4
1503020215.7,286046995.5,Y,0.0
1503020235.6,286046996.6,P,0.1
1503020285.4,286046997.0,E,nan
1503020295.3,286046998.5,N,0.0
1503020315.2,286047000.4,P,1.0
1503020335.0,286046999.8,N,0.8
1503020335.9,286046999.8,N,0.7
1503020355.7,286047000.0,N,0.6
1503020375.6,286047001.2,N,0.8
1503020395.4,286047000.6,N,0.8
1503020415.2,286047000.9,N,0.8
1503020435.1,286046998.4,N,0.9
1503020436.0,286046998.4,N,1.0
1503020455.8,286046998.2,N,1.1
1503020475.6,286047000.7,N,1.0
1503020495.5,286046999.1,N,1.0
1503020515.3,286047001.1,N,1.0
1503020535.1,286046999.1,N,1.0
1503020555.9,286046998.7,N,1.0
1503020575.7,286046998.2,N,1.1
1503020595.5,286046998.3,N,1.1
1503020615.4,286047000.8,N,1.1
1503020635.2,286047000.6,N,1.1
1503020655.0,286047000.7,N,1.1
1503020656.0,286047000.7,N,1.1
1503020675.8,286047000.8,N,1.1
1503020695.6,286047001.2,N,1.1
1503020715.5,286047001.1,N,1.1
1503020735.3,286046998.1,N,1.1
1503020755.1,286047000.8,N,1.1
1503020775.9,286046998.5,N,1.1
1503020795.7,286046998.3,N,1.1
1503020815.5,286046998.5,N,1.1
1503020835.4,286046998.5,N,1.1
1503020855.2,286047001.1,N,1.2
1503020875.0,286046998.9,N,1.2
1503020875.9,286046998.9,N,1.2
1503020895.8,286046998.8,N,1.2
1503020915.6,286046998.8,N,1.2
1503020935.4,286046996.5,Y,0.0
1503020955.3,286046998.3,P,0.6
1503020975.1,286046999.2,N,0.5
1503020995.8,286046999.3,N,0.5
1503021015.7,286046999.2,N,0.4
1503021035.5,286046998.4,Y,0.0
1503021055.3,286047000.5,P,0.7
1503021075.2,286047001.2,N,0.9
1503021095.0,286047001.2,N,0.9
1503021095.9,286047001.2,N,0.8
1503021115.8,286047000.7,N,0.7
1503021135.6,286047001.1,N,0.7
1503021155.4,286046999.0,N,0.9
1503021175.3,286047000.7,N,0.8
1503021195.1,286046998.7,N,1.0
1503021196.0,286046998.7,N,1.0
1503021215.8,286046998.8,N,1.1
1503021235.7,286047000.9,N,1.0
1503021255.5,286047000.9,N,1.0
1503021275.3,286047000.8,N,1.0
1503021295.2,286047000.0,N,1.0
1503021315.9,286046999.7,N,0.9
1503021335.7,286047000.9,N,0.9
1503021355.6,286047000.4,N,0.9
1503021375.4,286047000.2,N,0.9
1503021395.2,286047002.4,N,1.0
1503021415.1,286047002.5,N,1.1
1503021416.0,286047002.5,N,1.1
1503021435.8,286047000.2,N,1.1
1503021455.6,286047000.2,N,1.1
1503021475.5,286047000.5,N,1.1
1503021495.3,286047000.3,N,1.0
1503021515.1,286047002.8,N,1.1
1503021535.9,286047000.3,N,1.1
1503021555.7,286047002.3,N,1.1
1503021575.5,286047002.5,N,1.1
1503021595.4,286047002.1,N,1.1
